DAL2789 KATL-KORF

Flight info

Callsign DAL2789
Flight time 1h 1m
Altitude 23000
Route KATL PHIIL3 PHIIL DCT HRTWL Q54 NUTZE DCT ECG DCT KORF
Aircraft A21N/M-SDFGHRWY/LB1

Departure

Time 2026-05-08 00:57
Airport Hartsfield Jackson Atlanta International Airport (KATL)

Arrival

Time 2026-05-08 01:59
Airport Norfolk International Airport (KORF)
Time Latitude Longitude Altitude Speed Heading
2026-05-08 00:47 33.64000 -84.43962 1007 ft 0 kts 91°
2026-05-08 00:49 33.64000 -84.43982 1007 ft 5 kts 91°
2026-05-08 00:49 33.64001 -84.44049 1007 ft 11 kts 91°
2026-05-08 00:50 33.64024 -84.44118 1007 ft 0 kts 162°
2026-05-08 00:50 33.64021 -84.44117 1007 ft 4 kts 162°
2026-05-08 00:50 33.63893 -84.44118 1007 ft 34 kts 180°
2026-05-08 00:51 33.63697 -84.44108 1009 ft 0 kts 160°
2026-05-08 00:51 33.63671 -84.44072 1009 ft 27 kts 113°
2026-05-08 00:51 33.63665 -84.43862 1009 ft 39 kts 89°
2026-05-08 00:51 33.63667 -84.43535 1009 ft 35 kts 89°
2026-05-08 00:52 33.63667 -84.43422 1009 ft 14 kts 92°
2026-05-08 00:52 33.63665 -84.43324 1035 ft 15 kts 91°
2026-05-08 00:52 33.63666 -84.43100 1035 ft 39 kts 88°
2026-05-08 00:52 33.63660 -84.42697 1036 ft 55 kts 94°
2026-05-08 00:53 33.63661 -84.42294 1036 ft 40 kts 89°
2026-05-08 00:53 33.63658 -84.41985 1036 ft 34 kts 91°
2026-05-08 00:53 33.63659 -84.41681 1035 ft 44 kts 89°
2026-05-08 00:53 33.63657 -84.41284 1035 ft 50 kts 91°
2026-05-08 00:54 33.63647 -84.40954 1036 ft 19 kts 115°
2026-05-08 00:54 33.63565 -84.40914 1036 ft 0 kts 177°
2026-05-08 00:55 33.63562 -84.40914 1036 ft 3 kts 177°
2026-05-08 00:55 33.63481 -84.40929 1036 ft 12 kts 230°
2026-05-08 00:55 33.63474 -84.40963 1036 ft 0 kts 265°
2026-05-08 00:56 33.63472 -84.40995 1036 ft 25 kts 268°
2026-05-08 00:56 33.63472 -84.41516 1035 ft 99 kts 271°
2026-05-08 00:57 33.63473 -84.42667 1036 ft 176 kts 270°
2026-05-08 00:57 33.63482 -84.44404 1391 ft 232 kts 273°
2026-05-08 00:57 33.63479 -84.46487 2335 ft 269 kts 265°
2026-05-08 00:57 33.62918 -84.48795 3349 ft 308 kts 250°
2026-05-08 00:58 33.62000 -84.51283 4454 ft 339 kts 248°
2026-05-08 00:58 33.61373 -84.53055 5295 ft 358 kts 249°
2026-05-08 00:58 33.59804 -84.56764 6871 ft 393 kts 232°
2026-05-08 00:58 33.57417 -84.58414 8695 ft 422 kts 195°
2026-05-08 00:59 33.54346 -84.58147 9572 ft 466 kts 177°
2026-05-08 00:59 33.50972 -84.57587 9622 ft 508 kts 180°
2026-05-08 00:59 33.47495 -84.57197 11788 ft 494 kts 180°
2026-05-08 00:59 33.45220 -84.56815 12987 ft 503 kts 179°
2026-05-08 01:00 33.41692 -84.55848 13621 ft 544 kts 169°
2026-05-08 01:00 33.38227 -84.53605 14125 ft 594 kts 144°
2026-05-08 01:00 33.35795 -84.49623 16090 ft 601 kts 112°
2026-05-08 01:00 33.36127 -84.43366 19739 ft 568 kts 67°
2026-05-08 01:01 33.37084 -84.40353 20011 ft 585 kts 66°
2026-05-08 01:01 33.38589 -84.35656 19888 ft 616 kts 66°
2026-05-08 01:01 33.40586 -84.29440 21898 ft 601 kts 66°
2026-05-08 01:01 33.41588 -84.26315 22254 ft 612 kts 66°
2026-05-08 01:02 33.43634 -84.19947 22564 ft 613 kts 66°
2026-05-08 01:02 33.44643 -84.16804 22683 ft 613 kts 66°
2026-05-08 01:02 33.46179 -84.12029 22757 ft 613 kts 66°
2026-05-08 01:02 33.47712 -84.07268 22779 ft 613 kts 66°
2026-05-08 01:03 33.49248 -84.02506 22777 ft 613 kts 66°
2026-05-08 01:03 33.50787 -83.97742 22790 ft 613 kts 66°
2026-05-08 01:03 33.52328 -83.92986 22792 ft 613 kts 65°
2026-05-08 01:03 33.53873 -83.88213 22826 ft 613 kts 65°
2026-05-08 01:04 33.55408 -83.83443 22813 ft 614 kts 65°
2026-05-08 01:04 33.56940 -83.78667 22817 ft 614 kts 65°
2026-05-08 01:04 33.58477 -83.73898 22835 ft 614 kts 65°
2026-05-08 01:04 33.60058 -83.69214 22842 ft 613 kts 64°
2026-05-08 01:05 33.61718 -83.64430 22805 ft 613 kts 64°
2026-05-08 01:05 33.63345 -83.59781 22796 ft 613 kts 63°
2026-05-08 01:05 33.65002 -83.55067 22776 ft 613 kts 63°
2026-05-08 01:05 33.66663 -83.50361 22772 ft 613 kts 63°
2026-05-08 01:06 33.68332 -83.45649 22759 ft 613 kts 63°
2026-05-08 01:06 33.69999 -83.40947 22769 ft 613 kts 63°
2026-05-08 01:06 33.71673 -83.36235 22782 ft 613 kts 63°
2026-05-08 01:06 33.73346 -83.31531 22797 ft 613 kts 63°
2026-05-08 01:07 33.75022 -83.26826 22794 ft 613 kts 63°
2026-05-08 01:07 33.76702 -83.22114 22801 ft 613 kts 63°
2026-05-08 01:07 33.78376 -83.17379 22829 ft 618 kts 63°
2026-05-08 01:07 33.80016 -83.12683 22800 ft 617 kts 63°
2026-05-08 01:08 33.81674 -83.07933 22795 ft 616 kts 63°
2026-05-08 01:08 33.83334 -83.03181 22801 ft 616 kts 63°
2026-05-08 01:08 33.84997 -82.98430 22809 ft 617 kts 63°
2026-05-08 01:08 33.86663 -82.93678 22814 ft 617 kts 63°
2026-05-08 01:09 33.88335 -82.88917 22816 ft 616 kts 63°
2026-05-08 01:09 33.90003 -82.84171 22812 ft 616 kts 63°
2026-05-08 01:09 33.91673 -82.79425 22812 ft 616 kts 63°
2026-05-08 01:09 33.93346 -82.74681 22801 ft 616 kts 63°
2026-05-08 01:10 33.95024 -82.69938 22796 ft 615 kts 63°
2026-05-08 01:10 33.96704 -82.65195 22790 ft 616 kts 63°
2026-05-08 01:10 33.98385 -82.60456 22794 ft 616 kts 63°
2026-05-08 01:10 34.00049 -82.55769 22830 ft 619 kts 62°
2026-05-08 01:11 34.01729 -82.50995 22798 ft 619 kts 62°
2026-05-08 01:11 34.03409 -82.46208 22772 ft 619 kts 62°
2026-05-08 01:11 34.05088 -82.41428 22774 ft 620 kts 62°
2026-05-08 01:11 34.06771 -82.36647 22767 ft 618 kts 62°
2026-05-08 01:12 34.08455 -82.31874 22770 ft 618 kts 62°
2026-05-08 01:12 34.10141 -82.27106 22782 ft 619 kts 62°
2026-05-08 01:12 34.11833 -82.22329 22785 ft 619 kts 62°
2026-05-08 01:12 34.13525 -82.17560 22791 ft 618 kts 62°
2026-05-08 01:13 34.15222 -82.12784 22791 ft 618 kts 62°
2026-05-08 01:13 34.16896 -82.08080 22790 ft 619 kts 62°
2026-05-08 01:13 34.18596 -82.03309 22789 ft 619 kts 62°
2026-05-08 01:13 34.20299 -81.98538 22783 ft 618 kts 62°
2026-05-08 01:14 34.22005 -81.93767 22815 ft 621 kts 62°
2026-05-08 01:14 34.23728 -81.88978 22784 ft 621 kts 62°
2026-05-08 01:14 34.25457 -81.84196 22782 ft 621 kts 62°
2026-05-08 01:14 34.27189 -81.79410 22790 ft 621 kts 62°
2026-05-08 01:15 34.28921 -81.74633 22803 ft 621 kts 62°
2026-05-08 01:15 34.30657 -81.69850 22798 ft 621 kts 62°
2026-05-08 01:15 34.32394 -81.65067 22808 ft 621 kts 62°
2026-05-08 01:15 34.34133 -81.60284 22801 ft 621 kts 62°
2026-05-08 01:16 34.35874 -81.55500 22738 ft 621 kts 62°
2026-05-08 01:16 34.37596 -81.50777 22738 ft 621 kts 62°
2026-05-08 01:16 34.39340 -81.45998 22739 ft 621 kts 62°
2026-05-08 01:16 34.41090 -81.41213 22741 ft 621 kts 62°
2026-05-08 01:17 34.42841 -81.36432 22750 ft 621 kts 62°
2026-05-08 01:17 34.44600 -81.31652 22775 ft 622 kts 62°
2026-05-08 01:17 34.46369 -81.26867 22744 ft 622 kts 62°
2026-05-08 01:17 34.48139 -81.22083 22750 ft 623 kts 62°
2026-05-08 01:18 34.49915 -81.17293 22753 ft 622 kts 61°
2026-05-08 01:18 34.51685 -81.12517 22760 ft 622 kts 61°
2026-05-08 01:18 34.53465 -81.07722 22757 ft 622 kts 61°
2026-05-08 01:18 34.55242 -81.02942 22770 ft 622 kts 61°
2026-05-08 01:19 34.57021 -80.98161 22774 ft 622 kts 61°
2026-05-08 01:19 34.58801 -80.93381 22788 ft 622 kts 61°
2026-05-08 01:19 34.60561 -80.88662 22788 ft 622 kts 61°
2026-05-08 01:19 34.62340 -80.83889 22801 ft 621 kts 61°
2026-05-08 01:20 34.64125 -80.79105 22802 ft 621 kts 61°
2026-05-08 01:20 34.65927 -80.74312 22836 ft 625 kts 61°
2026-05-08 01:20 34.67752 -80.69528 22810 ft 624 kts 60°
2026-05-08 01:20 34.69704 -80.64825 22798 ft 622 kts 58°
2026-05-08 01:21 34.71723 -80.60173 22796 ft 622 kts 57°
2026-05-08 01:21 34.73765 -80.55537 22810 ft 622 kts 57°
2026-05-08 01:21 34.75810 -80.50914 22794 ft 621 kts 57°
2026-05-08 01:21 34.77848 -80.46288 22808 ft 620 kts 57°
2026-05-08 01:22 34.79887 -80.41663 22808 ft 621 kts 57°
2026-05-08 01:22 34.81932 -80.37027 22733 ft 621 kts 57°
2026-05-08 01:22 34.83946 -80.32466 22755 ft 621 kts 57°
2026-05-08 01:22 34.85992 -80.27836 22829 ft 620 kts 57°
2026-05-08 01:23 34.88054 -80.23222 22809 ft 621 kts 57°
2026-05-08 01:23 34.90130 -80.18612 22806 ft 621 kts 57°
2026-05-08 01:23 34.92212 -80.14004 22794 ft 621 kts 57°
2026-05-08 01:23 34.94299 -80.09388 22803 ft 621 kts 57°
2026-05-08 01:24 34.96383 -80.04780 22806 ft 621 kts 57°
2026-05-08 01:24 34.98466 -80.00176 22805 ft 621 kts 57°
2026-05-08 01:24 35.00557 -79.95562 22804 ft 621 kts 57°
2026-05-08 01:24 35.02644 -79.90960 22793 ft 621 kts 57°
2026-05-08 01:25 35.04736 -79.86350 22781 ft 621 kts 56°
2026-05-08 01:25 35.06802 -79.81800 22784 ft 621 kts 56°
2026-05-08 01:25 35.08897 -79.77201 22799 ft 620 kts 56°
2026-05-08 01:25 35.10997 -79.72605 22786 ft 620 kts 56°
2026-05-08 01:26 35.13100 -79.68009 22761 ft 620 kts 56°
2026-05-08 01:26 35.15204 -79.63414 22751 ft 620 kts 56°
2026-05-08 01:26 35.17312 -79.58817 22799 ft 620 kts 56°
2026-05-08 01:26 35.19422 -79.54221 22809 ft 620 kts 56°
2026-05-08 01:27 35.21534 -79.49626 22806 ft 620 kts 56°
2026-05-08 01:27 35.23646 -79.45034 22809 ft 620 kts 56°
2026-05-08 01:27 35.25758 -79.40444 22796 ft 620 kts 56°
2026-05-08 01:27 35.27874 -79.35844 22794 ft 620 kts 56°
2026-05-08 01:28 35.29989 -79.31259 22835 ft 618 kts 56°
2026-05-08 01:28 35.32107 -79.26683 22832 ft 618 kts 56°
2026-05-08 01:28 35.34196 -79.22168 22907 ft 618 kts 57°
2026-05-08 01:28 35.35997 -79.17366 22895 ft 624 kts 66°
2026-05-08 01:29 35.37493 -79.12370 22921 ft 625 kts 68°
2026-05-08 01:29 35.38916 -79.07343 22938 ft 625 kts 69°
2026-05-08 01:29 35.40320 -79.02293 22943 ft 626 kts 69°
2026-05-08 01:29 35.41718 -78.97236 22947 ft 626 kts 69°
2026-05-08 01:30 35.43113 -78.92182 22948 ft 626 kts 69°
2026-05-08 01:30 35.44510 -78.87123 22949 ft 626 kts 69°
2026-05-08 01:30 35.45909 -78.82069 22942 ft 626 kts 69°
2026-05-08 01:30 35.47309 -78.77016 22937 ft 626 kts 69°
2026-05-08 01:31 35.48694 -78.72020 22963 ft 626 kts 69°
2026-05-08 01:31 35.50097 -78.66971 22937 ft 627 kts 69°
2026-05-08 01:31 35.51506 -78.61898 22943 ft 628 kts 69°
2026-05-08 01:31 35.52916 -78.56823 22938 ft 628 kts 69°
2026-05-08 01:32 35.54327 -78.51756 22947 ft 628 kts 69°
2026-05-08 01:32 35.55741 -78.46681 22889 ft 628 kts 69°
2026-05-08 01:32 35.57156 -78.41614 22859 ft 627 kts 69°
2026-05-08 01:32 35.58571 -78.36548 22848 ft 627 kts 69°
2026-05-08 01:33 35.59988 -78.31481 22840 ft 627 kts 69°
2026-05-08 01:33 35.61406 -78.26413 22820 ft 627 kts 69°
2026-05-08 01:33 35.62825 -78.21350 22813 ft 627 kts 68°
2026-05-08 01:33 35.64248 -78.16279 22804 ft 627 kts 68°
2026-05-08 01:34 35.65672 -78.11214 22821 ft 627 kts 68°
2026-05-08 01:34 35.67074 -78.06238 22813 ft 623 kts 68°
2026-05-08 01:34 35.68495 -78.01206 22799 ft 623 kts 68°
2026-05-08 01:34 35.69953 -77.96200 22772 ft 621 kts 65°
2026-05-08 01:35 35.71818 -77.91410 22786 ft 619 kts 58°
2026-05-08 01:35 35.73992 -77.86848 22811 ft 617 kts 54°
2026-05-08 01:35 35.76275 -77.82388 22823 ft 616 kts 53°
2026-05-08 01:35 35.78596 -77.77948 22808 ft 616 kts 52°
2026-05-08 01:36 35.80927 -77.73521 22818 ft 616 kts 52°
2026-05-08 01:36 35.83262 -77.69100 22820 ft 616 kts 52°
2026-05-08 01:36 35.85572 -77.64736 22817 ft 616 kts 52°
2026-05-08 01:36 35.87906 -77.60329 22866 ft 613 kts 52°
2026-05-08 01:37 35.90242 -77.55924 22840 ft 615 kts 52°
2026-05-08 01:37 35.92590 -77.51502 22840 ft 615 kts 52°
2026-05-08 01:37 35.94935 -77.47090 22843 ft 615 kts 52°
2026-05-08 01:37 35.97282 -77.42676 22846 ft 615 kts 52°
2026-05-08 01:38 35.99630 -77.38263 22848 ft 615 kts 52°
2026-05-08 01:38 36.01981 -77.33848 22847 ft 615 kts 52°
2026-05-08 01:38 36.04335 -77.29432 22803 ft 615 kts 52°
2026-05-08 01:38 36.06693 -77.25025 22838 ft 612 kts 51°
2026-05-08 01:39 36.09165 -77.20790 22780 ft 607 kts 48°
2026-05-08 01:39 36.11751 -77.16691 22770 ft 605 kts 46°
2026-05-08 01:39 36.14370 -77.12701 22775 ft 604 kts 45°
2026-05-08 01:39 36.17035 -77.08693 22779 ft 604 kts 45°
2026-05-08 01:40 36.19714 -77.04685 22772 ft 604 kts 45°
2026-05-08 01:40 36.22462 -77.00772 22773 ft 601 kts 42°
2026-05-08 01:40 36.25285 -76.96956 22775 ft 600 kts 41°
2026-05-08 01:40 36.28129 -76.93175 22805 ft 597 kts 41°
2026-05-08 01:41 36.30964 -76.89443 22777 ft 594 kts 41°
2026-05-08 01:41 36.33804 -76.85723 22734 ft 596 kts 40°
2026-05-08 01:41 36.36662 -76.81983 22745 ft 598 kts 40°
2026-05-08 01:41 36.39518 -76.78244 22756 ft 598 kts 40°
2026-05-08 01:42 36.42346 -76.74542 22761 ft 598 kts 40°
2026-05-08 01:42 36.45217 -76.70816 22755 ft 596 kts 38°
2026-05-08 01:42 36.48409 -76.67632 22696 ft 582 kts 26°
2026-05-08 01:42 36.51935 -76.65428 22671 ft 558 kts 12°
2026-05-08 01:43 36.55643 -76.64341 22642 ft 539 kts 358°
2026-05-08 01:43 36.59313 -76.64378 22520 ft 521 kts 345°
2026-05-08 01:43 36.62854 -76.65237 21341 ft 520 kts 340°
2026-05-08 01:43 36.66453 -76.65988 20192 ft 533 kts 347°
2026-05-08 01:44 36.70222 -76.65854 19022 ft 550 kts 359°
2026-05-08 01:44 36.74031 -76.65225 17942 ft 554 kts
2026-05-08 01:44 36.77856 -76.64503 16754 ft 558 kts
2026-05-08 01:44 36.81697 -76.63759 15603 ft 561 kts
2026-05-08 01:45 36.85427 -76.63026 14670 ft 492 kts
2026-05-08 01:45 36.88351 -76.62360 14248 ft 375 kts
2026-05-08 01:45 36.90672 -76.61747 14042 ft 317 kts
2026-05-08 01:45 36.92722 -76.61159 13948 ft 296 kts
2026-05-08 01:46 36.94668 -76.60413 13875 ft 304 kts 17°
2026-05-08 01:46 36.96519 -76.59113 13881 ft 305 kts 23°
2026-05-08 01:46 36.98319 -76.57732 13871 ft 303 kts 25°
2026-05-08 01:46 37.00093 -76.56333 13868 ft 301 kts 25°
2026-05-08 01:47 37.01850 -76.54928 13878 ft 300 kts 25°
2026-05-08 01:47 37.03645 -76.53495 13880 ft 312 kts 25°
2026-05-08 01:47 37.05462 -76.51895 13887 ft 325 kts 30°
2026-05-08 01:48 37.09276 -76.48247 13883 ft 366 kts 32°
2026-05-08 01:48 37.11344 -76.46255 13875 ft 384 kts 32°
2026-05-08 01:48 37.13507 -76.44179 13875 ft 399 kts 32°
2026-05-08 01:48 37.15757 -76.42031 13280 ft 424 kts 32°
2026-05-08 01:49 37.18154 -76.39774 12453 ft 424 kts 32°
2026-05-08 01:49 37.20450 -76.37603 11638 ft 404 kts 32°
2026-05-08 01:49 37.22613 -76.35550 10854 ft 387 kts 32°
2026-05-08 01:49 37.24533 -76.33236 10024 ft 383 kts 49°
2026-05-08 01:50 37.25750 -76.30295 9114 ft 378 kts 70°
2026-05-08 01:50 37.26114 -76.27078 8209 ft 369 kts 90°
2026-05-08 01:50 37.25995 -76.23912 7387 ft 358 kts 94°
2026-05-08 01:50 37.25762 -76.20849 6598 ft 347 kts 95°
2026-05-08 01:51 37.25474 -76.17887 5789 ft 337 kts 95°
2026-05-08 01:51 37.25156 -76.15011 4975 ft 328 kts 96°
2026-05-08 01:51 37.24826 -76.12226 4317 ft 315 kts 96°
2026-05-08 01:51 37.24510 -76.09684 4502 ft 277 kts 96°
2026-05-08 01:52 37.24221 -76.07451 4586 ft 250 kts 96°
2026-05-08 01:52 37.23931 -76.05309 4228 ft 259 kts 98°
2026-05-08 01:52 37.23143 -76.03191 3976 ft 275 kts 127°
2026-05-08 01:52 37.21681 -76.01797 3875 ft 258 kts 156°
2026-05-08 01:53 37.20027 -76.00909 3864 ft 259 kts 157°
2026-05-08 01:53 37.18369 -76.00017 3864 ft 260 kts 157°
2026-05-08 01:53 37.16708 -75.99125 3866 ft 260 kts 157°
2026-05-08 01:53 37.15042 -75.98236 3866 ft 260 kts 157°
2026-05-08 01:54 37.13318 -75.97577 3855 ft 260 kts 177°
2026-05-08 01:54 37.11560 -75.97955 3816 ft 257 kts 205°
2026-05-08 01:54 37.10082 -75.99091 3817 ft 251 kts 226°
2026-05-08 01:54 37.08874 -76.00656 3838 ft 249 kts 232°
2026-05-08 01:55 37.07711 -76.02264 3845 ft 250 kts 227°
2026-05-08 01:55 37.06372 -76.03670 3852 ft 252 kts 221°
2026-05-08 01:55 37.04979 -76.04992 3861 ft 252 kts 220°
2026-05-08 01:55 37.03580 -76.06280 3863 ft 252 kts 220°
2026-05-08 01:56 37.02161 -76.07574 3861 ft 252 kts 219°
2026-05-08 01:56 37.00743 -76.08862 3866 ft 252 kts 219°
2026-05-08 01:56 36.99315 -76.10161 3270 ft 256 kts 219°
2026-05-08 01:56 36.97945 -76.11464 2472 ft 243 kts 219°
2026-05-08 01:57 36.96621 -76.12739 1825 ft 234 kts 219°
2026-05-08 01:57 36.95466 -76.13938 1520 ft 201 kts 221°
2026-05-08 01:57 36.94461 -76.15012 1106 ft 186 kts 223°
2026-05-08 01:57 36.93520 -76.16020 782 ft 172 kts 221°
2026-05-08 01:58 36.92615 -76.16940 421 ft 164 kts 218°
2026-05-08 01:58 36.91762 -76.17780 244 ft 154 kts 218°
2026-05-08 01:58 36.90910 -76.18592 112 ft 150 kts 217°
2026-05-08 01:58 36.90122 -76.19345 4 ft 133 kts 218°
2026-05-08 01:59 36.89657 -76.19798 8 ft 37 kts 218°
2026-05-08 01:59 36.89619 -76.19840 7 ft 2 kts 236°
2026-05-08 01:59 36.89635 -76.19857 7 ft 4 kts 351°
2026-05-08 01:59 36.89669 -76.19859 6 ft 7 kts 359°
2026-05-08 02:00 36.89741 -76.19864 4 ft 10 kts 340°
2026-05-08 02:00 36.89740 -76.19951 4 ft 12 kts 252°
2026-05-08 02:00 36.89761 -76.20061 3 ft 15 kts 292°
2026-05-08 02:00 36.89731 -76.20169 3 ft 14 kts 213°
2026-05-08 02:01 36.89711 -76.20188 3 ft 0 kts 216°